"Time","Temp","Dewpoint","Humidity","Pressure","Direction","Speed","Gust","Precip","PrecipRate"
"00:04:57","62.7","62.1","97.9","30.08","343","0","0","0.00","0.00"
"00:09:57","62.7","62.1","97.9","30.08","343","0","0","0.00","0.00"
"00:14:57","62.8","62.2","98","30.08","343","0","0","0.00","0.00"
"00:19:57","62.8","62.2","98","30.07","343","0","0","0.00","0.00"
"00:24:58","62.8","62.2","98","30.07","343","0","0","0.00","0.00"
"00:29:59","62.9","62.3","98","30.07","343","0","0","0.00","0.00"
"00:34:59","62.9","62.3","98","30.07","343","0","0","0.00","0.00"
"00:39:56","62.9","62.2","97.6","30.07","343","0","0","0.00","0.00"
"00:44:58","62.9","62.2","97.6","30.07","343","0","0","0.00","0.00"
"00:49:59","62.9","62.1","97.3","30.07","343","0","0","0.00","0.00"
"00:54:58","62.9","62.3","97.9","30.07","343","0","0","0.00","0.00"
"00:59:57","62.9","62.3","97.8","30.07","343","0","0","0.00","0.00"
"01:04:56","62.9","62.1","97.2","30.06","343","0","0","0.00","0.00"
"01:09:57","62.9","62.2","97.7","30.06","343","0","0","0.00","0.00"
"01:14:59","63","62.1","97.2","30.06","343","0","0","0.00","0.00"
"01:19:58","62.9","62.1","97.3","30.06","343","0","0","0.00","0.00"
"01:24:58","62.9","62.1","97.3","30.06","343","0","0","0.00","0.00"
"01:29:56","62.9","62.1","97.5","30.06","343","0","0","0.00","0.00"
"01:34:56","62.9","62","97","30.06","343","0","0","0.00","0.00"
"01:39:57","62.8","62","97.4","30.06","343","0","0","0.00","0.00"
"01:44:55","62.8","61.9","97.1","30.06","343","0","0","0.00","0.00"
"01:49:58","62.8","61.9","97","30.06","343","0","0","0.00","0.00"
"01:54:56","62.7","61.8","97","30.06","343","0","0","0.00","0.00"
"01:59:59","62.7","61.8","97","30.06","343","0","0","0.00","0.00"
"02:04:59","62.6","61.7","97","30.06","343","0","0","0.00","0.00"
"02:09:57","62.5","61.6","97","30.06","343","0","0","0.00","0.00"
"02:14:57","62.4","61.5","97","30.06","343","0","0","0.00","0.00"
"02:19:57","62.2","61.3","97","30.06","343","0","0","0.00","0.00"
"02:24:57","62.1","61.2","97","30.06","343","0","0","0.00","0.00"
"02:29:58","62","61.1","97","30.06","343","0","0","0.00","0.00"
"02:34:59","62","61.1","97","30.06","343","0","0","0.00","0.00"
"02:39:59","61.9","61","97","30.06","343","0","0","0.00","0.00"
"02:44:58","61.8","60.9","97","30.06","343","0","0","0.00","0.00"
"02:49:58","61.7","60.8","97","30.06","343","0","0","0.00","0.00"
"02:54:58","61.6","60.7","97","30.06","343","0","0","0.00","0.00"
"02:59:57","61.5","60.6","97","30.06","343","0","0","0.00","0.00"
"03:04:59","61.5","60.6","97","30.06","343","0","0","0.00","0.00"
"03:09:58","61.5","60.8","97.8","30.06","343","0","0","0.00","0.00"
"03:14:56","61.5","60.9","98","30.06","343","0","0","0.00","0.00"
"03:19:59","61.5","60.9","98","30.06","343","0","0","0.00","0.00"
"03:24:59","61.4","60.8","98","30.06","343","0","0","0.00","0.00"
"03:29:59","61.4","60.6","97.5","30.06","343","0","0","0.00","0.00"
"03:34:57","61.4","60.6","97.5","30.05","343","0","0","0.00","0.00"
"03:39:59","61.4","60.8","98","30.05","343","0","0","0.00","0.00"
"03:44:59","61.4","60.8","98","30.05","343","0","0","0.00","0.00"
"03:49:58","61.4","60.8","98","30.05","343","0","0","0.00","0.00"
"03:54:59","61.4","60.8","98","30.05","343","0","0","0.00","0.00"
"03:59:59","61.3","60.7","98","30.05","343","0","0","0.00","0.00"
"04:04:59","61.3","60.7","98","30.05","343","0","0","0.00","0.00"
"04:09:58","61.3","60.7","98","30.05","343","0","0","0.00","0.00"
"04:14:59","61.3","60.7","98","30.05","343","0","0","0.00","0.00"
"04:19:59","61.3","60.7","98","30.05","343","0","0","0.00","0.00"
"04:24:56","61.2","60.6","98","30.05","343","0","0","0.00","0.00"
"04:29:59","61.2","60.6","98","30.05","343","0","0","0.00","0.00"
"04:34:59","61.2","60.6","98","30.05","343","0","0","0.00","0.00"
"04:39:57","61.2","60.6","98","30.05","343","0","0","0.00","0.00"
"04:44:59","61.2","60.6","98","30.05","343","0","0","0.00","0.00"
"04:49:58","61.2","60.6","98","30.05","343","0","0","0.00","0.00"
"04:54:58","61.2","60.6","98","30.05","343","0","0","0.00","0.00"
"04:59:57","61.1","60.5","98","30.06","343","0","0","0.00","0.00"
"05:04:59","61","60.4","98","30.06","343","0","0","0.00","0.00"
"05:09:57","60.9","60.3","98","30.06","343","0","0","0.00","0.00"
"05:14:58","60.8","60.2","98","30.06","343","0","0","0.00","0.00"
"05:19:58","60.8","60.2","98","30.06","343","0","0","0.00","0.00"
"05:24:58","60.8","60.2","98","30.06","343","0","0","0.00","0.00"
"05:29:56","60.8","60.2","98","30.07","343","0","0","0.00","0.00"
"05:34:56","60.9","60.3","98","30.07","343","0","0","0.00","0.00"
"05:39:57","60.9","60.3","98","30.07","343","0","0","0.00","0.00"
"05:44:58","61","60.4","98","30.07","343","0","0","0.00","0.00"
"05:49:57","61.1","60.5","98","30.07","343","0","0","0.00","0.00"
"05:54:59","61.1","60.5","98","30.07","343","0","0","0.00","0.00"
"05:59:58","61.1","60.5","98","30.07","318","0","0","0.00","0.00"
"06:04:56","61","60.4","98","30.07","318","0","0","0.00","0.00"
"06:09:56","61","60.4","98","30.07","318","0","0","0.00","0.00"
"06:14:55","60.9","60.3","98","30.07","318","0","0","0.00","0.00"
"06:19:59","60.8","60.2","98","30.07","318","0","0","0.00","0.00"
"06:24:59","60.8","60.2","98","30.07","318","0","0","0.00","0.00"
"06:29:58","60.7","60.1","98","30.08","318","0","0","0.00","0.00"
"06:34:56","60.7","60.1","98","30.08","318","0","0","0.00","0.00"
"06:39:56","60.6","60","98","30.08","318","0","0","0.00","0.00"
"06:44:57","60.5","59.9","98","30.08","318","0","0","0.00","0.00"
"06:49:57","60.4","59.8","98","30.08","318","0","0","0.00","0.00"
"06:54:59","60.3","59.7","98","30.08","318","0","0","0.00","0.00"
"06:59:57","60.2","59.6","98","30.08","318","0","0","0.00","0.00"
"07:04:56","60.1","59.5","98","30.08","318","0","0","0.00","0.00"
"07:09:59","60","59.4","98","30.08","318","0","0","0.00","0.00"
"07:14:57","59.8","59.2","98","30.08","318","0","0","0.00","0.00"
"07:19:57","59.7","59.1","98","30.08","318","0","0","0.00","0.00"
"07:24:59","59.6","59","98","30.08","318","0","0","0.00","0.00"
"07:29:56","59.5","58.9","98","30.08","318","0","0","0.00","0.00"
"07:34:56","59.4","58.8","98","30.08","318","0","0","0.00","0.00"
"07:39:59","59.4","58.8","98","30.08","318","0","0","0.00","0.00"
"07:44:58","59.4","58.8","98","30.09","298","0","1.2","0.00","0.00"
"07:49:56","59.5","58.9","98","30.09","298","0","1.2","0.00","0.00"
"07:54:57","59.5","58.9","98","30.09","298","0","0","0.00","0.00"
"07:59:59","59.6","59","98","30.10","298","0","0","0.00","0.00"
"08:04:56","59.6","59","98","30.10","298","0","0","0.00","0.00"
"08:09:59","59.6","59","98","30.10","298","0","0","0.00","0.00"
"08:14:56","59.7","59.1","98","30.10","298","0","0","0.00","0.00"
"08:19:56","59.8","59.2","98","30.10","298","0","0","0.00","0.00"
"08:24:48","59.9","59.3","98","30.10","298","0","0","0.00","0.00"
"08:29:58","60","59.4","98","30.10","298","0","0","0.00","0.00"
"08:34:59","60.1","59.5","98","30.10","298","0","0","0.00","0.00"
"08:39:58","60.2","59.6","98","30.10","298","0","0","0.00","0.00"
"08:44:58","60.3","59.8","98.1","30.10","298","0","0","0.00","0.00"
"08:49:59","60.5","60.2","99","30.10","298","0","0","0.00","0.00"
"08:54:57","60.8","60.5","99","30.10","298","0","0","0.00","0.00"
"08:59:58","61.2","60.9","99","30.10","298","0","0","0.00","0.00"
"09:04:58","61.3","61","99","30.10","298","0","0","0.00","0.00"
"09:09:57","61.5","61.2","99","30.10","298","0","0","0.00","0.00"
"09:14:57","61.7","61.4","99","30.10","298","0","0","0.00","0.00"
"09:19:58","62.1","61.8","99","30.10","298","0","0","0.00","0.00"
"09:24:59","62.4","62.1","99","30.10","298","0.4","2.3","0.00","0.00"
"09:29:57","62.5","62.2","99","30.10","298","0.1","1.2","0.00","0.00"
"09:34:58","62.7","62.4","99","30.10","298","0.1","2","0.00","0.00"
"09:39:59","62.7","62.4","99","30.10","298","0.6","2.3","0.00","0.00"
"09:44:56","62.8","62.5","99","30.10","298","0","1.2","0.00","0.00"
"09:49:58","62.9","62.6","99","30.10","297","0.4","2.3","0.00","0.00"
"09:54:56","63.1","62.8","99","30.10","297","1.2","3.5","0.00","0.00"
"09:59:59","63.1","62.7","98.8","30.10","297","1.3","3.5","0.00","0.00"
"10:04:58","63.2","62.6","98","30.10","297","0.3","2.3","0.00","0.00"
"10:09:57","63.5","63.1","98.6","30.10","297","0.3","2.3","0.00","0.00"
"10:14:58","64.3","64","99","30.10","297","0","0","0.00","0.00"
"10:19:56","64.8","64.5","99","30.10","297","0","0","0.00","0.00"
"10:24:57","65.4","64.7","97.7","30.10","186","0.2","3.5","0.00","0.00"
"10:29:59","66","64.7","95.5","30.10","208","2","4","0.00","0.00"
"10:34:59","66.6","64.6","93.2","30.10","175","2","5","0.00","0.00"
"10:39:59","67.1","64.5","91.4","30.10","183","1.6","3.5","0.00","0.00"
"10:44:58","67.5","64.9","91.2","30.10","215","1","4","0.00","0.00"
"10:49:57","67.8","64.6","89.4","30.09","212","2","5","0.00","0.00"
"10:54:59","67.9","64.4","88.7","30.09","183","2","6","0.00","0.00"
"10:59:56","68.2","64.8","89","30.09","195","2.3","5","0.00","0.00"
"11:04:59","68.7","65.1","88.2","30.08","206","1.3","3.5","0.00","0.00"
"11:09:57","69","65.1","87.2","30.08","195","2.1","4","0.00","0.00"
"11:14:59","69","64.9","86.8","30.08","206","2.4","7","0.00","0.00"
"11:19:57","69.1","64.9","86.6","30.08","242","2.7","6.9","0.00","0.00"
"11:24:59","69","64.5","85.8","30.08","241","1.7","3.5","0.00","0.00"
"11:29:56","68.8","64.4","85.9","30.08","221","1.5","4","0.00","0.00"
"11:34:56","68.9","64.8","86.8","30.08","293","1.1","3.5","0.00","0.00"
"11:39:58","69","64.5","85.7","30.08","330","1.5","3.5","0.00","0.00"
"11:44:57","69.1","64.5","85.6","30.08","334","0.3","3","0.00","0.00"
"11:49:56","69","64.4","85.3","30.07","335","0.9","3.5","0.00","0.00"
"11:54:58","69.1","65","86.6","30.07","195","0.8","3.5","0.00","0.00"
"11:59:59","69.3","64.9","85.9","30.07","193","1.3","3.5","0.00","0.00"
"12:04:59","69.5","65.3","86.6","30.07","180","1.5","5","0.00","0.00"
"12:09:57","69.7","65.3","85.8","30.07","195","1.5","4","0.00","0.00"
"12:14:59","69.9","64.9","84.4","30.07","202","0.8","3","0.00","0.00"
"12:19:58","70.1","65.4","85.1","30.07","200","1.4","4","0.00","0.00"
"12:24:57","70.1","65.3","84.8","30.07","201","0.9","3.5","0.00","0.00"
"12:29:56","70.3","65.7","85.3","30.07","192","1","4","0.00","0.00"
"12:34:59","70.5","65.5","84.2","30.07","195","1.7","4","0.00","0.00"
"12:39:56","70.6","65.7","84.5","30.07","196","0.9","3.5","0.00","0.00"
"12:44:59","70.9","66.3","85.5","30.07","197","1","3","0.00","0.00"
"12:49:57","71.1","66.1","84.1","30.06","239","2","4","0.00","0.00"
"12:54:58","71.1","65.8","83.2","30.06","233","0.8","4","0.00","0.00"
"12:59:59","71.2","66.1","84.1","30.06","210","2.2","5","0.00","0.00"
"13:04:55","71.2","65.9","83.4","30.05","186","1.1","3.5","0.00","0.00"
"13:09:58","71.2","66.1","84","30.05","188","1.9","4","0.00","0.00"
"13:14:57","71.2","66","83.6","30.05","184","0.8","3.5","0.00","0.00"
"13:19:57","71.3","66.1","83.7","30.05","118","1.2","4","0.00","0.00"
"13:24:56","71.5","66.4","84.2","30.05","186","2.6","5","0.00","0.00"
"13:29:56","71.8","66.6","83.8","30.05","182","1.4","3.5","0.00","0.00"
"13:34:58","72","66.6","83","30.05","221","2.3","6","0.00","0.00"
"13:39:59","72.2","66.9","83.6","30.05","223","2.5","5.8","0.00","0.00"
"13:44:56","72.6","67.2","82.9","30.05","203","1.4","4","0.00","0.00"
"13:49:57","72.8","66.9","81.9","30.04","187","2.6","5","0.00","0.00"
"13:54:58","72.8","66.6","81.2","30.04","185","2.4","4","0.00","0.00"
"13:59:59","72.6","66.6","81.5","30.04","191","1.4","4","0.00","0.00"
"14:04:58","72.6","66.7","81.8","30.03","176","1.8","4","0.00","0.00"
"14:09:56","72.7","66.8","81.7","30.03","218","2.5","5","0.00","0.00"
"14:14:57","72.8","66.9","81.8","30.03","194","1.8","5","0.00","0.00"
"14:19:58","72.9","66.9","81.7","30.03","219","1.7","3.5","0.00","0.00"
"14:24:59","73.3","67.7","82.6","30.03","192","2.1","5","0.00","0.00"
"14:29:59","73.6","67.4","81","30.03","163","1.7","4.6","0.00","0.00"
"14:34:58","74","67.7","80.6","30.02","150","0.8","3.5","0.00","0.00"
"14:39:59","74.3","67.8","80.2","30.02","138","0.7","3.5","0.00","0.00"
"14:44:56","74.5","67.9","79.9","30.02","141","0.7","3","0.00","0.00"
"14:49:56","75","67.8","78.2","30.01","166","1.7","4","0.00","0.00"
"14:54:57","75.5","68","77.7","30.01","187","1.3","5","0.00","0.00"
"14:59:58","75.8","68.3","77.6","30.01","188","1.5","3.5","0.00","0.00"
"15:04:58","75.8","68.1","77","30.01","188","2.3","5","0.00","0.00"
"15:09:57","75.5","67.7","76.8","30.01","183","1.7","4.6","0.00","0.00"
"15:14:59","75.2","67.7","77.6","30.01","182","0.4","2.3","0.00","0.00"
"15:19:56","75.3","67.8","77.7","30.01","174","0.5","4","0.00","0.00"
"15:24:58","75.1","67.5","77.2","30.01","123","0.8","3.5","0.00","0.00"
"15:29:59","75.3","68.1","78.4","30.01","123","0.6","3.5","0.00","0.00"
"15:34:56","75.5","67.9","77.1","30.00","127","1.4","5","0.00","0.00"
"15:39:58","75.6","67.9","77","30.00","119","1.3","4.6","0.00","0.00"
"15:44:57","75.8","68.2","77.6","30.00","9","1.3","3.5","0.00","0.00"
"15:49:58","76","67.8","75.8","30.00","77","0.6","3.5","0.00","0.00"
"15:54:58","75.9","67.8","76","30.00","152","0.8","4","0.00","0.00"
"15:59:56","75.7","67.7","76.4","30.00","193","1.8","3.5","0.00","0.00"
"16:04:57","75.6","67.9","77.1","30.00","193","0.2","2.3","0.00","0.00"
"16:09:56","75.8","67.8","76.1","30.00","158","0","0","0.00","0.00"
"16:14:56","76.2","68.7","77.6","30.00","158","0.3","3","0.00","0.00"
"16:19:57","76.6","68.3","75.7","30.00","179","1.3","3.5","0.00","0.00"
"16:24:58","76.7","68.4","75.5","30.00","184","1","2.3","0.00","0.00"
"16:29:58","76.9","67.9","73.9","30.00","184","1","2.3","0.00","0.00"
"16:34:56","76.9","68","73.9","30.00","184","1.2","2.3","0.00","0.00"
"16:39:57","77.2","68.2","73.6","30.00","184","0.4","2.3","0.00","0.00"
"16:44:58","77.6","68.3","73.1","30.00","183","0.2","3","0.00","0.00"
"16:49:58","77.5","68.1","72.7","30.00","183","0.7","2.3","0.00","0.00"
"16:54:56","77.5","68.5","73.6","30.00","135","0.5","3.5","0.00","0.00"
"16:59:58","77.6","68.3","72.9","30.00","160","1.7","3.5","0.00","0.00"
"17:04:59","77.3","67.9","72.8","30.00","197","1.8","4","0.00","0.00"
"17:09:57","77.1","68","73.4","30.00","301","1.3","3.5","0.00","0.00"
"17:14:59","77.3","68.1","73.4","30.00","255","1.2","3.5","0.00","0.00"
"17:19:52","77.5","68.2","73","29.99","208","1.8","5","0.00","0.00"
"17:24:57","77.1","68","73.5","29.99","192","1.4","4.6","0.00","0.00"
"17:29:59","76.7","67.7","73.8","29.99","192","0.1","2.3","0.00","0.00"
"17:34:57","76.4","67.8","74.8","29.99","183","0.1","2.3","0.00","0.00"
"17:39:59","76","67.5","75.1","29.99","180","0","1.2","0.00","0.00"
"17:44:57","75.6","67.6","76.2","29.99","181","0","0","0.00","0.00"
"17:49:58","75.3","67.6","76.9","29.99","181","0","0","0.00","0.00"
"17:54:56","75.1","67.4","77.1","29.99","181","0","0","0.00","0.00"
"17:59:58","74.8","67.5","78.1","29.99","190","0","1","0.00","0.00"
"18:04:59","74.3","67.2","78.5","29.99","190","0","1.2","0.00","0.00"
"18:09:57","73.9","67.1","79.3","29.99","190","0","0","0.00","0.00"
"18:14:56","73.5","66.9","80","29.99","190","0","0","0.00","0.00"
"18:19:59","73.3","66.8","80","29.99","188","0","0","0.00","0.00"
"18:24:58","73","66.6","80.4","29.99","188","0","0","0.00","0.00"
"18:29:57","72.8","66.6","81","30.00","188","0","0","0.00","0.00"
"18:34:59","72.6","66.6","81.3","30.00","188","0","0","0.00","0.00"
"18:39:57","72.2","66.6","82.5","30.00","188","0","0","0.00","0.00"
"18:44:59","71.6","66.4","83.6","30.00","188","0","0","0.00","0.00"
"18:49:58","71","66.2","84.6","30.00","188","0","0","0.00","0.00"
"18:54:56","70.5","66.1","85.9","30.00","188","0","0","0.00","0.00"
"18:59:58","69.9","65.9","87","30.00","188","0","0","0.00","0.00"
"19:04:56","69.5","65.8","88","30.00","188","0","0","0.00","0.00"
"19:09:59","69.1","65.7","89","30.00","188","0","0","0.00","0.00"
"19:14:57","68.9","65.6","89.3","30.01","188","0","0","0.00","0.00"
"19:19:58","68.7","65.4","89.2","30.01","188","0","0","0.00","0.00"
"19:24:56","68.3","65.2","89.8","30.01","188","0","0","0.00","0.00"
"19:29:57","68","65","90","30.02","188","0","0","0.00","0.00"
"19:34:59","67.5","64.8","90.7","30.02","188","0.3","2.3","0.00","0.00"
"19:39:58","67.4","65","91.9","30.02","179","0.4","3","0.00","0.00"
"19:44:59","67.4","65","92","30.02","179","0.2","3.5","0.00","0.00"
"19:49:58","67.5","65.1","92","30.02","179","0.3","2.3","0.00","0.00"
"19:54:56","67.5","65.1","92","30.02","179","0.3","2.3","0.00","0.00"
"19:59:58","67.5","65","91.7","30.02","179","0.1","1.2","0.00","0.00"
"20:04:55","67.5","65.1","92","30.02","179","0","0","0.00","0.00"
"20:09:58","67.4","65.1","92","30.02","179","0","0","0.00","0.00"
"20:14:56","67.4","65","92","30.02","179","0","0","0.00","0.00"
"20:19:58","67.4","64.9","91.9","30.02","179","0","0","0.00","0.00"
"20:24:59","67.2","64.8","91.9","30.02","179","0","0","0.00","0.00"
"20:29:56","67.1","64.7","92","30.03","179","0","0","0.00","0.00"
"20:34:58","67","64.6","92","30.03","179","0","0","0.00","0.00"
"20:39:57","66.8","64.4","92","30.03","179","0","0","0.00","0.00"
"20:44:58","66.6","64.2","92","30.03","179","0","0","0.00","0.00"
"20:49:59","66.4","64","92.2","30.03","179","0","0","0.00","0.00"
"20:54:56","66.2","64.1","93","30.03","179","0","0","0.00","0.00"
"20:59:59","66.1","64","93","30.03","179","0","0","0.00","0.00"
"21:04:56","65.9","63.8","93.1","30.03","179","0","0","0.00","0.00"
"21:09:59","65.9","64.1","94","30.03","179","0","0","0.00","0.00"
"21:14:56","65.9","64.1","94","30.03","179","0","0","0.00","0.00"
"21:19:59","65.8","64","94","30.03","179","0","0","0.00","0.00"
"21:24:57","65.6","63.9","94.3","30.03","179","0","1","0.00","0.00"
"21:29:59","65.6","64.1","95","30.03","179","0.1","1.2","0.00","0.00"
"21:34:59","65.6","64.1","95","30.03","179","0","0","0.00","0.00"
"21:39:57","65.6","64.1","95","30.03","179","0","0","0.00","0.00"
"21:44:58","65.5","63.8","94.5","30.03","179","0","0","0.00","0.00"
"21:49:57","65.3","63.5","94","30.03","179","0.1","2","0.00","0.00"
"21:54:59","65.1","63.6","95","30.03","179","0","0","0.00","0.00"
"21:59:57","65","63.5","95","30.03","179","0","0","0.00","0.00"
"22:04:57","64.9","63.4","95","30.03","179","0","0","0.00","0.00"
"22:09:56","64.9","63.4","95","30.03","179","0","0","0.00","0.00"
"22:14:59","64.8","63.3","95","30.03","179","0","0","0.00","0.00"
"22:19:58","64.8","63.3","95","30.03","179","0","0","0.00","0.00"
"22:24:56","64.7","63.2","95","30.03","179","0","0","0.00","0.00"
"22:29:59","64.5","62.9","94.6","30.03","179","0","0","0.00","0.00"
"22:34:58","64.1","62.3","94","30.03","179","0","0","0.00","0.00"
"22:39:59","64","62.4","95","30.03","179","0","0","0.00","0.00"
"22:44:57","64","62.8","96","30.03","179","0","0","0.00","0.00"
"22:49:59","63.9","62.5","95.3","30.03","179","0","0","0.00","0.00"
"22:54:58","63.8","62.6","96","30.03","179","0","0","0.00","0.00"
"22:59:56","63.7","62.2","95.1","30.03","179","0","0","0.00","0.00"
"23:04:59","63.5","62","95","30.02","179","0","0","0.00","0.00"
"23:09:59","63.3","62","95.5","30.02","179","0","0","0.00","0.00"
"23:14:58","63.3","62.1","96","30.02","179","0","0","0.00","0.00"
"23:19:58","63.2","62","96","30.02","179","0","0","0.00","0.00"
"23:24:57","63.1","61.9","96","30.02","179","0","0","0.00","0.00"
"23:29:59","63","61.8","96","30.02","179","0","0","0.00","0.00"
"23:34:59","62.9","61.7","96","30.02","179","0","0","0.00","0.00"
"23:39:58","62.7","61.5","96","30.02","179","0","0","0.00","0.00"
"23:44:56","62.7","61.5","96","30.02","179","0","0","0.00","0.00"
"23:49:56","62.8","61.8","96.9","30.02","179","0","0","0.00","0.00"
"23:54:59","62.8","61.9","96.9","30.02","179","0","0","0.00","0.00"
"23:59:56","62.8","61.9","96.9","30.02","179","0","0","0.00","0.00"
